TimeEST,TemperatureF,Dew PointF,Humidity,Sea Level PressureIn,VisibilityMPH,Wind Direction,Wind SpeedMPH,Gust SpeedMPH,PrecipitationIn,Events,Conditions,WindDirDegrees,DateUTC
12:53 AM,41.0,39.0,93,30.44,6.0,Calm,Calm,-,N/A,,Clear,0,2012-11-11 05:53:00
1:53 AM,39.9,37.9,93,30.45,6.0,Calm,Calm,-,N/A,,Partly Cloudy,0,2012-11-11 06:53:00
2:53 AM,39.9,37.0,89,30.44,5.0,Calm,Calm,-,N/A,,Clear,0,2012-11-11 07:53:00
3:53 AM,39.9,37.9,93,30.45,6.0,Calm,Calm,-,N/A,,Clear,0,2012-11-11 08:53:00
4:53 AM,39.9,37.9,93,30.47,5.0,Calm,Calm,-,N/A,,Partly Cloudy,0,2012-11-11 09:53:00
5:53 AM,39.9,37.9,93,30.48,5.0,Calm,Calm,-,N/A,,Clear,0,2012-11-11 10:53:00
6:53 AM,39.0,37.9,96,30.48,3.0,SSE,3.5,-,N/A,,Clear,150,2012-11-11 11:53:00
7:53 AM,51.1,48.9,92,30.49,5.0,Calm,Calm,-,N/A,,Clear,0,2012-11-11 12:53:00
8:53 AM,55.9,50.0,80,30.51,10.0,South,10.4,-,N/A,,Clear,190,2012-11-11 13:53:00
9:53 AM,57.0,50.0,77,30.51,10.0,SSW,12.7,-,N/A,,Overcast,200,2012-11-11 14:53:00
10:53 AM,59.0,48.0,67,30.50,10.0,SW,12.7,-,N/A,,Unknown,220,2012-11-11 15:53:00
12:53 PM,60.1,48.9,67,30.47,10.0,SSW,13.8,-,N/A,,Clear,200,2012-11-11 17:53:00
1:53 PM,60.1,50.0,69,30.46,10.0,SSW,12.7,21.9,N/A,,Clear,210,2012-11-11 18:53:00
2:53 PM,59.0,50.0,72,30.47,10.0,SSW,16.1,-,N/A,,Clear,200,2012-11-11 19:53:00
3:53 PM,57.0,51.1,81,30.47,10.0,South,11.5,-,N/A,,Clear,190,2012-11-11 20:53:00
4:53 PM,55.0,51.1,86,30.48,10.0,SSW,6.9,-,N/A,,Clear,200,2012-11-11 21:53:00
5:53 PM,53.1,50.0,89,30.49,10.0,South,5.8,-,N/A,,Clear,180,2012-11-11 22:53:00
6:53 PM,53.1,51.1,93,30.48,9.0,South,8.1,-,N/A,,Clear,180,2012-11-11 23:53:00
7:53 PM,53.1,50.0,89,30.49,10.0,SSW,8.1,-,N/A,,Clear,200,2012-11-12 00:53:00
8:53 PM,54.0,51.1,90,30.50,9.0,SSW,6.9,-,N/A,,Clear,200,2012-11-12 01:53:00
9:53 PM,52.0,50.0,93,30.50,8.0,SSW,5.8,-,N/A,,Clear,200,2012-11-12 02:53:00
10:53 PM,52.0,51.1,97,30.50,7.0,SW,4.6,-,N/A,,Clear,220,2012-11-12 03:53:00
11:53 PM,52.0,50.0,93,30.49,5.0,Calm,Calm,-,N/A,,Clear,0,2012-11-12 04:53:00